(2006 VX2) |
Classification: Aten [NEO] SPK-ID: 3358222 |
[ hide orbit diagram ]
For accurate long-term ephemerides, please instead use our Horizons system.This orbit viewer was implemented using two-body methods, and hence should not be used for determining accurate long-term trajectories (over several years or decades) or planetary encounter circumstances.
Orbital Elements at Epoch 2459000.5 (2020-May-31.0) TDB
Reference: JPL 9 (heliocentric ecliptic J2000)
Element | Value | Uncertainty (1-sigma) | Units |
e | .2905812615456316 | 3.8772e-06 | |
a | .9342073644124643 | 7.5162e-08 | au |
q | .6627442099162709 | 3.6753e-06 | au |
i | 9.817026550383101 | 7.0334e-05 | deg |
node | 47.26959652677478 | 2.1208e-05 | deg |
peri | 126.5357427658454 | 0.000162 | deg |
M | 269.8964306599287 | 0.00084388 | deg |
tp | 2459083.047295923899 (2020-Aug-21.54729592) | 0.00078307 | TDB |
period | 329.8096484995481 0.90 | 3.9802e-05 1.09e-07 | d yr |
n | 1.09153871524924 | 1.3173e-07 | deg/d |
Q | 1.205670518908658 | 9.7002e-08 | au |
|
| | Orbit Determination Parameters
Additional Information
|
[ hide covariance matrix ]
Orbital Elements at Epoch 2454463.5 (2007-Dec-29.0) TDB
Reference: JPL 9 (heliocentric ecliptic J2000)
Element | Value | Uncertainty (1-sigma) | Units |
e | .2899230655418361 | 4.0943e-06 | |
q | .6626161444492191 | 3.4588e-06 | au |
tp | 2454466.541075789473 (2008-Jan-01.04107579) | 0.00017336 | TDB |
node | 47.38063711563163 | 2.2501e-05 | deg |
peri | 126.4010655188683 | 5.0151e-05 | deg |
i | 9.857891046522251 | 7.7095e-05 | deg |
|
| | Orbit Determination Parameters
Additional Information
|
Orbit Covariance (6×6)
|
|
e |
q |
tp |
node |
peri |
i |
e |
1.6763258792405E-11 |
-1.416114991166719E-11 |
-7.038227164642233E-10 |
-7.934408680848455E-11 |
-1.730527333824256E-10 |
2.659702141212945E-10 |
q |
-1.416114991166719E-11 |
1.196297271577007E-11 |
5.945138007817953E-10 |
6.702674242929019E-11 |
1.46133873050956E-10 |
-2.247963758882602E-10 |
tp |
-7.038227164642233E-10 |
5.945138007817953E-10 |
3.0052540984832E-8 |
3.218534957870056E-9 |
7.833838368184101E-9 |
-1.070067420595999E-8 |
node |
-7.934408680848455E-11 |
6.702674242929019E-11 |
3.218534957870056E-9 |
5.062810574393989E-10 |
5.985778461760092E-10 |
-1.062398390608262E-9 |
peri |
-1.730527333824256E-10 |
1.46133873050956E-10 |
7.833838368184101E-9 |
5.985778461760092E-10 |
2.515120773362815E-9 |
-2.473198498048022E-9 |
i |
2.659702141212945E-10 |
-2.247963758882602E-10 |
-1.070067420595999E-8 |
-1.062398390608262E-9 |
-2.473198498048022E-9 |
5.943636289140373E-9 |
|
Physical Parameter Table
Parameter |
Symbol |
Value |
Units |
Sigma |
Reference |
Notes |
absolute magnitude |
H |
24.6 |
|
n/a |
MPO354418 |
|
|
[ show close-approach data ]
|